Weather History for Wadesboro, NC

Change the Weather History Date:

Wednesday, January 30, 2013

  Actual Average (KCLT) Record (KCLT)
Temperature  
Mean Temperature 67 °F 41 °F  
Max Temperature 78 °F 52 °F 78 °F (2002)
Min Temperature 54 °F 30 °F 4 °F (1966)
Degree Days  
Heating Degree Days 0 24  
Month to date heating degree days 744  
Since 1 July heating degree days 2081  
Cooling Degree Days 2 0  
Month to date cooling degree days 0  
Year to date cooling degree days 0  
Growing Degree Days 17 (Base 50)    
Moisture  
Dew Point 60 °F    
Average Humidity 74    
Maximum Humidity 89    
Minimum Humidity 48    
Precipitation  
Precipitation 0.35 in 0.11 in 1.13 in (1960)
Month to date precipitation 3.30  
Year to date precipitation 3.30  
Snow  
Snow 0.00 in 0.00 in 3.90 in (1936)
Month to date snowfall 2.0  
Since 1 July snowfall 2.4  
Snow Depth -    
Sea Level Pressure  
Sea Level Pressure 29.79 in    
Wind  
Wind Speed 13 mph (South)    
Max Wind Speed 29 mph    
Max Gust Speed 39 mph    
Visibility 10 miles    
Events Rain    
T = Trace of Precipitation, MM = Missing Value Source: NWS Daily Summary

Daily Weather History Graph

Daily Weather History Graph

Search for Another Location

Airport:

Trip Planner

Search our weather history database for the weather conditions in past years. The results will help you decide how hot, cold, wet, or windy it might be!

Date:

Astronomy

Jan. 30, 2013 Rise Set
Actual Time 7:20 AM EST 5:47 PM EST
Civil Twilight 6:53 AM EST 6:14 PM EST
Nautical Twilight 6:23 AM EST 6:44 PM EST
Astronomical Twilight 5:53 AM EST 7:14 PM EST
Moon 9:32 PM EST (1/30) 8:57 AM EST (1/30)
Length of Visible Light 11h 20m
Length of Day
10h 26m
Waning Gibbous, 88% of the Moon is Illuminated
Jan 30
Waning Gibbous
Feb 3
Last Quarter
Feb 10
New
Feb 17
First Quarter
Feb 25
Full

Hourly Weather History & Observations

Time (EST) Temp. Dew Point Humidity Pressure Visibility Wind Dir Wind Speed Gust Speed Precip Events Conditions
12:15 AM 65.3 °F 60.3 °F 84% 30.07 in 10.0 mi South 8.1 mph - N/A   Scattered Clouds
12:35 AM 65.7 °F 60.8 °F 84% 30.06 in 10.0 mi South 6.9 mph - N/A   Mostly Cloudy
12:55 AM 65.7 °F 60.8 °F 84% 30.05 in 10.0 mi South 9.2 mph - N/A   Mostly Cloudy
1:15 AM 65.5 °F 60.8 °F 85% 30.05 in 10.0 mi South 9.2 mph - N/A   Scattered Clouds
1:35 AM 65.5 °F 60.8 °F 85% 30.05 in 10.0 mi SSE 9.2 mph 18.4 mph N/A   Scattered Clouds
1:55 AM 65.8 °F 61.0 °F 84% 30.05 in 10.0 mi South 10.4 mph 18.4 mph N/A   Mostly Cloudy
2:15 AM 66.0 °F 61.0 °F 84% 30.04 in 10.0 mi South 8.1 mph 17.3 mph N/A   Overcast
2:35 AM 66.2 °F 61.2 °F 84% 30.02 in 10.0 mi South 10.4 mph 19.6 mph N/A   Overcast
2:55 AM 66.6 °F 61.2 °F 83% 30.01 in 10.0 mi South 12.7 mph 21.9 mph N/A   Overcast
3:15 AM 66.4 °F 61.2 °F 83% 30.01 in 10.0 mi South 8.1 mph 20.7 mph N/A   Overcast
3:35 AM 66.7 °F 61.3 °F 83% 30.00 in 10.0 mi South 11.5 mph 23.0 mph N/A   Overcast
3:55 AM 66.7 °F 61.3 °F 83% 29.99 in 10.0 mi South 12.7 mph 21.9 mph N/A   Overcast
4:15 AM 67.1 °F 61.3 °F 82% 29.99 in 10.0 mi South 11.5 mph 17.3 mph N/A   Overcast
4:35 AM 67.3 °F 61.7 °F 82% 29.98 in 10.0 mi South 10.4 mph 19.6 mph N/A   Overcast
4:55 AM 67.3 °F 61.7 °F 82% 29.98 in 10.0 mi South 6.9 mph 16.1 mph N/A   Overcast
5:15 AM 67.1 °F 61.7 °F 83% 29.97 in 10.0 mi South 10.4 mph 20.7 mph N/A   Overcast
5:35 AM 67.3 °F 61.9 °F 83% 29.96 in 10.0 mi SSE 12.7 mph 18.4 mph N/A   Overcast
5:55 AM 67.3 °F 62.1 °F 83% 29.95 in 10.0 mi SSE 10.4 mph 18.4 mph N/A   Overcast
6:15 AM 66.9 °F 61.9 °F 84% 29.95 in 10.0 mi South 9.2 mph 18.4 mph N/A   Mostly Cloudy
6:35 AM 67.3 °F 61.9 °F 83% 29.95 in 10.0 mi South 9.2 mph 19.6 mph N/A   Mostly Cloudy
7:15 AM 67.5 °F 62.1 °F 83% 29.94 in 10.0 mi SSE 11.5 mph 19.6 mph N/A   Overcast
7:35 AM 67.3 °F 62.1 °F 83% 29.95 in 10.0 mi South 12.7 mph 20.7 mph N/A   Overcast
7:55 AM 67.5 °F 62.1 °F 83% 29.93 in 10.0 mi SSE 12.7 mph 18.4 mph N/A   Overcast
8:15 AM 67.6 °F 62.1 °F 82% 29.92 in 10.0 mi SSE 16.1 mph 21.9 mph N/A   Overcast
8:35 AM 68.0 °F 62.4 °F 82% 29.92 in 10.0 mi SSE 15.0 mph 19.6 mph N/A   Overcast
8:55 AM 68.0 °F 62.6 °F 83% 29.92 in 10.0 mi South 13.8 mph 19.6 mph N/A   Overcast
9:15 AM 68.5 °F 62.6 °F 81% 29.91 in 10.0 mi South 12.7 mph 23.0 mph N/A   Overcast
9:35 AM 68.9 °F 62.8 °F 81% 29.90 in 10.0 mi South 15.0 mph 24.2 mph N/A   Overcast
9:55 AM 69.1 °F 62.8 °F 80% 29.90 in 10.0 mi South 12.7 mph 19.6 mph N/A   Overcast
10:15 AM 69.1 °F 62.8 °F 80% 29.90 in 10.0 mi South 15.0 mph 20.7 mph N/A   Overcast
10:35 AM 68.9 °F 63.1 °F 82% 29.90 in 10.0 mi South 11.5 mph 24.2 mph N/A   Light Drizzle
10:55 AM 68.2 °F 63.5 °F 85% 29.89 in 10.0 mi SSE 12.7 mph 23.0 mph N/A   Light Drizzle
11:15 AM 67.6 °F 63.7 °F 87% 29.87 in 5.0 mi SSE 10.4 mph 18.4 mph N/A   Overcast
11:35 AM 68.9 °F 63.5 °F 83% 29.85 in 10.0 mi SSE 13.8 mph 18.4 mph N/A   Overcast
11:55 AM 69.4 °F 63.0 °F 80% 29.83 in 10.0 mi South 13.8 mph 21.9 mph N/A   Overcast
12:15 PM 70.3 °F 62.8 °F 77% 29.82 in 10.0 mi South 11.5 mph 25.3 mph N/A   Overcast
12:35 PM 73.0 °F 62.8 °F 70% 29.80 in 10.0 mi SSE 12.7 mph 23.0 mph N/A   Overcast
12:55 PM 74.5 °F 61.3 °F 63% 29.79 in 10.0 mi South 15.0 mph 33.4 mph N/A   Overcast
1:15 PM 75.2 °F 60.6 °F 60% 29.76 in 10.0 mi South 16.1 mph 29.9 mph N/A   Overcast
1:35 PM 76.6 °F 59.4 °F 55% 29.75 in 10.0 mi South 16.1 mph 26.5 mph N/A   Mostly Cloudy
1:55 PM 75.9 °F 58.8 °F 55% 29.72 in 10.0 mi SSE 17.3 mph 27.6 mph N/A   Mostly Cloudy
2:15 PM 76.8 °F 58.3 °F 53% 29.70 in 10.0 mi South 15.0 mph 35.7 mph N/A   Mostly Cloudy
2:35 PM 77.2 °F 57.6 °F 51% 29.69 in 10.0 mi South 18.4 mph 33.4 mph N/A   Mostly Cloudy
2:55 PM 78.1 °F 57.2 °F 49% 29.69 in 10.0 mi South 23.0 mph 28.8 mph N/A   Scattered Clouds
3:15 PM 76.6 °F 57.0 °F 51% 29.69 in 10.0 mi South 15.0 mph 36.8 mph N/A   Mostly Cloudy
3:35 PM 76.5 °F 56.7 °F 50% 29.68 in 10.0 mi South 18.4 mph 28.8 mph N/A   Overcast
3:55 PM 77.4 °F 56.3 °F 48% 29.66 in 10.0 mi South 18.4 mph 28.8 mph N/A   Mostly Cloudy
4:15 PM 76.1 °F 56.5 °F 50% 29.65 in 10.0 mi South 19.6 mph 28.8 mph N/A   Clear
4:35 PM 75.4 °F 56.5 °F 52% 29.64 in 10.0 mi SSE 23.0 mph 33.4 mph N/A   Scattered Clouds
4:55 PM 75.2 °F 56.3 °F 52% 29.63 in 10.0 mi SSE 19.6 mph 31.1 mph N/A   Clear
5:15 PM 74.3 °F 56.1 °F 53% 29.62 in 10.0 mi SSE 16.1 mph 32.2 mph N/A   Clear
5:35 PM 73.6 °F 55.9 °F 54% 29.61 in 10.0 mi South 20.7 mph 35.7 mph N/A   Clear
5:55 PM 73.4 °F 56.3 °F 55% 29.59 in 10.0 mi SSE 28.8 mph 35.7 mph N/A   Clear
6:15 PM 72.5 °F 57.2 °F 59% 29.58 in 10.0 mi SSE 16.1 mph 25.3 mph N/A   Scattered Clouds
6:35 PM 71.8 °F 58.5 °F 63% 29.57 in 10.0 mi SSE 19.6 mph 27.6 mph N/A   Mostly Cloudy
6:55 PM 71.1 °F 59.4 °F 66% 29.56 in 10.0 mi SSE 18.4 mph 29.9 mph N/A   Clear
7:15 PM 71.1 °F 59.9 °F 68% 29.55 in 10.0 mi SSE 24.2 mph 35.7 mph N/A   Scattered Clouds
7:35 PM 70.9 °F 59.9 °F 68% 29.55 in 10.0 mi SSE 23.0 mph 35.7 mph N/A   Scattered Clouds
7:55 PM 70.7 °F 59.9 °F 69% 29.53 in 10.0 mi SSE 24.2 mph 33.4 mph N/A   Scattered Clouds
8:15 PM 70.7 °F 60.1 °F 69% 29.53 in 10.0 mi SSE 19.6 mph 39.1 mph N/A   Scattered Clouds
8:35 PM 70.9 °F 60.3 °F 69% 29.52 in 10.0 mi SSE 23.0 mph 35.7 mph N/A   Mostly Cloudy
8:55 PM 70.9 °F 60.3 °F 69% 29.51 in 10.0 mi South 20.7 mph 32.2 mph N/A   Mostly Cloudy
9:15 PM 69.3 °F 61.0 °F 75% 29.50 in 10.0 mi SSE 19.6 mph 29.9 mph N/A Rain Light Rain
9:35 PM 68.0 °F 61.7 °F 80% 29.48 in 7.0 mi South 20.7 mph 28.8 mph 0.01 in Rain Light Rain
9:55 PM 68.0 °F 61.9 °F 81% 29.47 in 10.0 mi SSE 18.4 mph 27.6 mph 0.01 in Rain Light Rain
10:15 PM 64.8 °F 61.2 °F 88% 29.54 in 2.5 mi SW 10.4 mph 29.9 mph 0.29 in Rain Heavy Rain
10:35 PM 62.8 °F 59.4 °F 89% 29.55 in 10.0 mi SW 11.5 mph 23.0 mph 0.30 in Rain Light Rain
10:55 PM 59.7 °F 56.3 °F 88% 29.57 in 7.0 mi WSW 8.1 mph 26.5 mph 0.31 in Rain Light Rain
11:15 PM 58.1 °F 51.4 °F 78% 29.57 in 10.0 mi SW 13.8 mph 26.5 mph 0.01 in   Overcast
11:35 PM 56.5 °F 50.2 °F 79% 29.59 in 10.0 mi SW 12.7 mph 19.6 mph 0.01 in Rain Rain
11:55 PM 54.3 °F 49.3 °F 83% 29.61 in 5.0 mi SSW 15.0 mph 23.0 mph 0.03 in Rain Rain